| time (UTC) | temp F | wind direction | speed MPH | gust MPH | rain 1hr in | rain 24hr in | rain mn in | humidity % | barometer mb |
| 20260905003315 | 73 | 232 | 3.0 | 7.0 | 0.00 | 0.00 | 0.00 | 35 | 1031.5 |
| 20260905001835 | 73 | 228 | 0.0 | 6.0 | 0.00 | 0.00 | 0.00 | 35 | 1031.4 |
| 20260905000321 | 73 | 226 | 2.0 | 7.0 | 0.00 | 0.00 | 0.00 | 35 | 1031.3 |
| 20260904234816 | 74 | 218 | 1.0 | 8.0 | 0.00 | 0.00 | 0.00 | 34 | 1031.1 |
| 20260904233331 | 75 | 280 | 0.0 | 9.0 | 0.00 | 0.00 | 0.00 | 35 | 1031.3 |
| 20260904231823 | 78 | 195 | 3.0 | 9.0 | 0.00 | 0.00 | 0.00 | 30 | 1030.9 |
| 20260904230321 | 80 | 165 | 6.0 | 15.0 | 0.00 | 0.00 | 0.00 | 28 | 1030.8 |
| 20260904224816 | 81 | 187 | 2.0 | 11.0 | 0.00 | 0.00 | 0.00 | 28 | 1030.9 |
| 20260904223331 | 79 | 314 | 3.0 | 13.0 | 0.00 | 0.00 | 0.00 | 29 | 1030.9 |
| 20260904221844 | 79 | 345 | 2.0 | 11.0 | 0.00 | 0.00 | 0.00 | 32 | 1031.0 |
| 20260904220317 | 79 | 222 | 4.0 | 10.0 | 0.00 | 0.00 | 0.00 | 29 | 1031.2 |
| 20260904214852 | 79 | 268 | 4.0 | 11.0 | 0.00 | 0.00 | 0.00 | 28 | 1031.2 |
| 20260904213326 | 78 | 251 | 7.0 | 13.0 | 0.00 | 0.00 | 0.00 | 29 | 1031.6 |
| 20260904211819 | 78 | 285 | 2.0 | 8.0 | 0.00 | 0.00 | 0.00 | 31 | 1031.7 |
| 20260904210314 | 77 | 159 | 3.0 | 9.0 | 0.00 | 0.00 | 0.00 | 32 | 1031.8 |
| 20260904204826 | 76 | 183 | 1.0 | 7.0 | 0.00 | 0.00 | 0.00 | 35 | 1032.0 |
| 20260904203322 | 75 | 230 | 2.0 | 7.0 | 0.00 | 0.00 | 0.00 | 36 | 1032.2 |
| 20260904201835 | 77 | 177 | 5.0 | 10.0 | 0.00 | 0.00 | 0.00 | 33 | 1032.4 |
| 20260904200322 | 75 | 180 | 2.0 | 11.0 | 0.00 | 0.00 | 0.00 | 35 | 1032.6 |
| 20260904194816 | 73 | 252 | 3.0 | 9.0 | 0.00 | 0.00 | 0.00 | 40 | 1032.8 |
| 20260904193332 | 73 | 237 | 3.0 | 13.0 | 0.00 | 0.00 | 0.00 | 39 | 1033.0 |
| 20260904191854 | 73 | 276 | 2.0 | 8.0 | 0.00 | 0.00 | 0.00 | 39 | 1033.2 |
| 20260904190319 | 73 | 289 | 2.0 | 11.0 | 0.00 | 0.00 | 0.00 | 44 | 1033.0 |
| 20260904184813 | 72 | 280 | 1.0 | 10.0 | 0.00 | 0.00 | 0.00 | 42 | 1033.2 |
| 20260904183334 | 74 | 210 | 1.0 | 9.0 | 0.00 | 0.00 | 0.00 | 40 | 1033.5 |
| 20260904181847 | 73 | 250 | 4.0 | 10.0 | 0.00 | 0.00 | 0.00 | 40 | 1033.5 |
| 20260904180313 | 72 | 203 | 3.0 | 7.0 | 0.00 | 0.00 | 0.00 | 41 | 1033.9 |
| 20260904174835 | 71 | 168 | 4.0 | 8.0 | 0.00 | 0.00 | 0.00 | 45 | 1033.8 |
| 20260904173322 | 71 | 169 | 1.0 | 11.0 | 0.00 | 0.00 | 0.00 | 45 | 1033.8 |
| 20260904171814 | 70 | 181 | 3.0 | 7.0 | 0.00 | 0.00 | 0.00 | 47 | 1033.8 |
| 20260904170329 | 69 | 177 | 4.0 | 10.0 | 0.00 | 0.00 | 0.00 | 48 | 1033.7 |
| 20260904164824 | 68 | 196 | 2.0 | 6.0 | 0.00 | 0.00 | 0.00 | 49 | 1033.5 |
| 20260904163323 | 66 | 201 | 3.0 | 5.0 | 0.00 | 0.00 | 0.00 | 52 | 1033.2 |
| 20260904161827 | 65 | 200 | 2.0 | 5.0 | 0.00 | 0.00 | 0.00 | 52 | 1033.2 |
| 20260904160321 | 65 | 199 | 0.0 | 7.0 | 0.00 | 0.00 | 0.00 | 53 | 1033.1 |
| 20260904154835 | 65 | 186 | 2.0 | 4.0 | 0.00 | 0.00 | 0.00 | 51 | 1033.1 |
| 20260904153316 | 64 | 185 | 1.0 | 6.0 | 0.00 | 0.00 | 0.00 | 55 | 1032.8 |
| 20260904151829 | 61 | 167 | 0.0 | 6.0 | 0.00 | 0.00 | 0.00 | 61 | 1032.6 |
| 20260904150317 | 60 | 160 | 0.0 | 2.0 | 0.00 | 0.00 | 0.00 | 64 | 1032.7 |
| 20260904144811 | 59 | 159 | 2.0 | 5.0 | 0.00 | 0.00 | 0.00 | 68 | 1032.5 |
| 20260904143354 | 57 | 159 | 1.0 | 6.0 | 0.00 | 0.00 | 0.00 | 75 | 1032.7 |
| 20260904141825 | 54 | 42 | 1.0 | 3.0 | 0.00 | 0.00 | 0.00 | 86 | 1032.4 |
| 20260904140317 | 51 | 43 | 0.0 | 0.0 | 0.00 | 0.00 | 0.00 | 90 | 1032.5 |
| 20260904134831 | 50 | 43 | 0.0 | 0.0 | 0.00 | 0.00 | 0.00 | 90 | 1032.4 |
| 20260904133325 | 49 | 43 | 0.0 | 0.0 | 0.00 | 0.00 | 0.00 | 89 | 1032.0 |
| 20260904131839 | 49 | 42 | 0.0 | 0.0 | 0.00 | 0.00 | 0.00 | 88 | 1031.8 |
| 20260904130354 | 48 | 43 | 0.0 | 0.0 | 0.00 | 0.00 | 0.00 | 88 | 1031.6 |
| 20260904124848 | 48 | 43 | 0.0 | 0.0 | 0.00 | 0.00 | 0.00 | 87 | 1031.4 |
| 20260904123322 | 48 | 43 | 0.0 | 0.0 | 0.00 | 0.00 | 0.00 | 86 | 1031.3 |
| 20260904121836 | 48 | 43 | 0.0 | 0.0 | 0.00 | 0.00 | 0.00 | 85 | 1031.3 |
| 20260904120330 | 48 | 43 | 0.0 | 0.0 | 0.00 | 0.00 | 0.00 | 84 | 1031.2 |
| 20260904114823 | 49 | 43 | 0.0 | 0.0 | 0.00 | 0.00 | 0.00 | 84 | 1030.9 |
| 20260904113318 | 49 | 43 | 0.0 | 0.0 | 0.00 | 0.00 | 0.00 | 83 | 1030.8 |
| 20260904111831 | 49 | 43 | 0.0 | 0.0 | 0.00 | 0.00 | 0.00 | 82 | 1030.6 |
| 20260904110319 | 50 | 43 | 0.0 | 0.0 | 0.00 | 0.00 | 0.00 | 81 | 1030.6 |
| 20260904104813 | 50 | 43 | 0.0 | 0.0 | 0.00 | 0.00 | 0.00 | 80 | 1030.6 |
| 20260904103328 | 51 | 43 | 0.0 | 0.0 | 0.00 | 0.00 | 0.00 | 79 | 1030.6 |
| 20260904101821 | 51 | 43 | 0.0 | 0.0 | 0.00 | 0.00 | 0.00 | 78 | 1030.3 |
| 20260904100315 | 52 | 43 | 0.0 | 0.0 | 0.00 | 0.00 | 0.00 | 77 | 1030.3 |
| 20260904094826 | 53 | 43 | 0.0 | 0.0 | 0.00 | 0.00 | 0.00 | 78 | 1030.2 |
| 20260904093321 | 53 | 43 | 0.0 | 0.0 | 0.00 | 0.00 | 0.00 | 80 | 1030.2 |
| 20260904091836 | 53 | 43 | 0.0 | 0.0 | 0.00 | 0.00 | 0.00 | 81 | 1030.2 |
| 20260904090330 | 53 | 43 | 0.0 | 0.0 | 0.00 | 0.00 | 0.00 | 81 | 1030.2 |
| 20260904084844 | 53 | 43 | 0.0 | 0.0 | 0.00 | 0.00 | 0.00 | 81 | 1030.2 |
| 20260904083318 | 52 | 43 | 0.0 | 0.0 | 0.00 | 0.00 | 0.00 | 81 | 1030.2 |
| 20260904081811 | 52 | 43 | 0.0 | 0.0 | 0.00 | 0.00 | 0.00 | 80 | 1030.4 |
| 20260904080326 | 52 | 43 | 0.0 | 0.0 | 0.00 | 0.00 | 0.00 | 79 | 1030.5 |
| 20260904074819 | 52 | 42 | 0.0 | 1.0 | 0.00 | 0.00 | 0.00 | 78 | 1030.5 |
| 20260904073334 | 53 | 43 | 0.0 | 0.0 | 0.00 | 0.00 | 0.00 | 76 | 1030.7 |
| 20260904071824 | 54 | 43 | 0.0 | 0.0 | 0.00 | 0.00 | 0.00 | 74 | 1030.6 |
| 20260904070319 | 55 | 43 | 0.0 | 1.0 | 0.00 | 0.00 | 0.00 | 73 | 1030.7 |
| 20260904064834 | 56 | 43 | 0.0 | 1.0 | 0.00 | 0.00 | 0.00 | 70 | 1030.8 |
| 20260904063334 | 57 | 43 | 3.0 | 6.0 | 0.00 | 0.00 | 0.00 | 68 | 1030.6 |
| 20260904061820 | 57 | 20 | 0.0 | 10.0 | 0.00 | 0.00 | 0.00 | 70 | 1030.5 |
| 20260904060314 | 57 | 50 | 0.0 | 5.0 | 0.00 | 0.00 | 0.00 | 70 | 1030.5 |
| 20260904054829 | 57 | 54 | 0.0 | 4.0 | 0.00 | 0.00 | 0.00 | 70 | 1030.6 |
| 20260904053324 | 57 | 40 | 2.0 | 10.0 | 0.00 | 0.00 | 0.00 | 68 | 1030.8 |
| 20260904051817 | 58 | 40 | 0.0 | 4.0 | 0.00 | 0.00 | 0.00 | 71 | 1030.8 |
| 20260904050332 | 57 | 26 | 5.0 | 10.0 | 0.00 | 0.00 | 0.00 | 68 | 1031.0 |
| 20260904044825 | 57 | 25 | 3.0 | 8.0 | 0.00 | 0.00 | 0.00 | 73 | 1030.9 |
| 20260904043313 | 56 | 23 | 1.0 | 5.0 | 0.00 | 0.00 | 0.00 | 75 | 1031.0 |
| 20260904041833 | 56 | 22 | 1.0 | 3.0 | 0.00 | 0.00 | 0.00 | 80 | 1031.2 |
| 20260904040320 | 57 | 22 | 0.0 | 0.0 | 0.00 | 0.00 | 0.00 | 80 | 1031.3 |
| 20260904034815 | 57 | 22 | 0.0 | 1.0 | 0.00 | 0.00 | 0.00 | 78 | 1031.2 |
| 20260904033330 | 58 | 22 | 0.0 | 5.0 | 0.00 | 0.00 | 0.00 | 77 | 1031.5 |
| 20260904031822 | 58 | 23 | 0.0 | 6.0 | 0.00 | 0.00 | 0.00 | 74 | 1031.5 |
| 20260904030317 | 58 | 37 | 3.0 | 9.0 | 0.00 | 0.00 | 0.00 | 74 | 1031.5 |
| 20260904024830 | 58 | 52 | 3.0 | 8.0 | 0.00 | 0.00 | 0.00 | 78 | 1031.6 |
| 20260904023325 | 58 | 41 | 1.0 | 4.0 | 0.00 | 0.00 | 0.00 | 78 | 1031.6 |
| 20260904021822 | 58 | 41 | 1.0 | 6.0 | 0.00 | 0.00 | 0.00 | 78 | 1031.7 |
| 20260904020337 | 59 | 224 | 1.0 | 4.0 | 0.00 | 0.00 | 0.00 | 75 | 1031.5 |
| 20260904014830 | 61 | 223 | 1.0 | 3.0 | 0.00 | 0.00 | 0.00 | 75 | 1031.7 |
| 20260904013318 | 62 | 222 | 0.0 | 0.0 | 0.00 | 0.00 | 0.00 | 72 | 1031.9 |
| 20260904011811 | 63 | 222 | 0.0 | 3.0 | 0.00 | 0.00 | 0.00 | 65 | 1032.0 |
| 20260904010353 | 65 | 222 | 1.0 | 7.0 | 0.00 | 0.00 | 0.00 | 59 | 1032.1 |
| 20260904004818 | 67 | 288 | 1.0 | 5.0 | 0.00 | 0.00 | 0.00 | 45 | 1031.6 |